Regional Weather Roundup
Issued by NWS

Home | Current Version | Previous Version | Graphics & Text | Print | Product List | Glossary On
Versions: 1 2 3 4 5 6 7 8 9 10 11 12 13 14 15 16 17 18 19 20 21 22 23 24 25 26 27 28 29 30 31 32 33 34 35 36 37 38 39 40 41 42 43 44 45 46 47 48 49 50
000
ASUS43 KLOT 250409
RWRIL

ILLINOIS REGIONAL WEATHER ROUNDUP
NATIONAL WEATHER SERVICE CHICAGO/ROMEOVILLE IL
1100 PM CDT SUN SEP 24 2017

NOTE: "FAIR" INDICATES FEW OR NO CLOUDS BELOW 12,000 FEET WITH NO
SIGNIFICANT WEATHER AND/OR OBSTRUCTIONS TO VISIBILITY.

* THESE STATIONS ARE NOT UNDER NWS QUALITY CONTROL. THEY ALSO MAY NOT
  REPORT WEATHER SUCH AS PRECIPITATION OR FOG.

ILZ001-002-007-009-015-016-024-250500-
NORTHWEST ILLINOIS

CITY           SKY/WX    TMP DP  RH WIND       PRES   REMARKS
MOLINE         CLEAR     74  63  68 E5        29.96F
STERLING*      CLEAR     67  63  87 E5        29.99S
SAVANNA*       CLEAR     69  64  84 CALM      29.98S
$$

ILZ003-004-008-010-011-017-018-250500-
NORTH CENTRAL ILLINOIS

CITY           SKY/WX    TMP DP  RH WIND       PRES   REMARKS
ROCKFORD       CLEAR     71  61  70 SE5       30.00F
FREEPORT*      CLEAR     67  60  80 SE6       30.01S
ROCHELLE*      CLEAR     67  60  79 SE5       30.01S
DE KALB*       CLEAR     71  61  70 SE6       30.02S
PERU*          CLEAR     75  59  58 SE7       30.00S
$$

ILZ005-006-012>014-019>023-250500-
NORTHEAST ILLINOIS

CITY           SKY/WX    TMP DP  RH WIND       PRES   REMARKS
CHICAGO-OHARE  CLEAR     76  61  59 SE5       30.01S
CHICAGO-MIDWAY CLEAR     78  65  63 CALM      30.01F HX  80
AURORA         CLEAR     71  62  73 CALM      30.01F
LANSING*       CLEAR     69  65  87 CALM      30.01F
JOLIET*        CLEAR     70  64  80 CALM      30.01S
WAUKEGAN       CLEAR     73  65  75 SE6       30.01F
DUPAGE AIRPORT CLEAR     71  62  73 SE3       30.00F
KANKAKEE*      CLEAR     69  61  74 SE6       30.02S
WHEELING       CLEAR     74  64  71 CALM      30.02F
MORRIS*        CLEAR     74  63  68 E6        29.99F
ROMEOVILLE*    CLEAR     73  61  66 SE5       30.01F
NORTHERLY ISL    N/A     72  66  81 CALM        N/A
$$

LMZ740>746-250500-
SOUTHERN LAKE MICHIGAN

STATION/POSITION SKY/WX   TEMP    WIND        PRES    VSBY  WAVE
                          AIR SEA DIR/SP/G                  HT/PER
                          (F)     (DEG/KT/KT) (MB)    (MI)  (FT/S)
SOUTHERN BUOY              73 71   80/  8/  8 1016.7          0
WILMETTE HARBOR            72 71  160/  4/  6   N/A           1/ 2
HARRISON CRIB              76     160/  4/  4   N/A
BURNHAM HARBOR             71                   N/A
CALUMET HARBOR             76     180/  1/  2 1015.7F
BURNS HARBOR               82     140/  8/ 10 1016.9F
MICHIGAN CITY              74     120/  7/  8   N/A
MICHIGAN CITY 6N           74 72  130/  6/  6   N/A           0
ST. JOSEPH                 74 73  140/  4/  4 1016.5          0
$$

ILZ025>027-034>036-040-047-049-050-058-095>099-250500-
WEST-CENTRAL ILLINOIS

CITY           SKY/WX    TMP DP  RH WIND       PRES   REMARKS
QUINCY         CLEAR     73  62  68 SE6       29.96F
GALESBURG*     CLEAR     73  61  67 E5        29.98F
MACOMB*        CLEAR     69  62  78 SE3       29.99S
JACKSONVILLE*  CLEAR     67  58  73 CALM      29.97S
PITTSFIELD*    CLEAR     73  64  72 CALM      29.97F
$$

ILZ028>032-037-038-041>044-048-051>054-059>061-250500-
CENTRAL ILLINOIS

CITY           SKY/WX    TMP DP  RH WIND       PRES   REMARKS
PONTIAC        CLEAR     69  65  88 CALM      30.01S
BLOOMINGTON    CLEAR     72  59  63 SE7       30.02S
DECATUR        CLEAR     72  58  61 SE7       30.00S
PEORIA         CLEAR     74  62  66 E6        29.98F
LACON*         CLEAR     75  60  59 SE7       29.98S
LINCOLN*       CLEAR     68  61  78 CALM      29.99S
SPRINGFIELD    CLEAR     69  61  75 CALM      29.98F
TAYLORVILLE    CLEAR     73  59  61 SE5       29.99F
$$

ILZ033-039-045-046-055>057-062-063-250500-
EAST-CENTRAL ILLINOIS

CITY           SKY/WX    TMP DP  RH WIND       PRES   REMARKS
CHAMPAIGN      CLEAR     71  57  61 SE6       30.02
RANTOUL*       CLEAR     73  61  64 SE6       30.02S
MATTOON        CLEAR     73  60  63 SE6       30.00F
PARIS*         CLEAR     68  60  74 SE3       30.03S
$$

ILZ079-100>102-250500-
SOUTHWEST ILLINOIS

CITY           SKY/WX    TMP DP  RH WIND       PRES   REMARKS
ALTON          CLEAR     70  64  81 SE3       29.98F
BELLEVILLE     CLEAR     72  65  78 CALM      29.97F
CAHOKIA*       CLEAR     71  63  75 SE5       29.97F
SPARTA*        CLEAR     74  65  72 S5        30.00S
$$

ILZ064>066-069>071-074>076-080>082-084>086-088>090-092>094-250500-
SOUTH-CENTRAL ILLINOIS

CITY           SKY/WX    TMP DP  RH WIND       PRES   REMARKS
CARBONDALE     PTCLDY    68  67  96 CALM      29.99S
CAIRO*         CLEAR     66  65  94 CALM      29.99F
EFFINGHAM*     CLEAR     70  61  73 CALM      30.02S
MARION         PTCLDY    72  70  94 S3        30.00S
MT. VERNON       N/A     66  63  90 CALM      30.00S
CENTRALIA*     CLEAR     68  62  82 CALM      29.99S
SALEM*         CLEAR     69  61  76 CALM      30.00R
METROPOLIS*    CLEAR     68  64  88 CALM      30.00S
$$

ILZ067-068-072-073-078-083-087-091-250500-
SOUTHEAST ILLINOIS

CITY           SKY/WX    TMP DP  RH WIND       PRES   REMARKS
LAWRENCEVILLE  CLEAR     72  64  76 E6        30.01F
FLORA*         CLEAR     69  64  82 CALM      30.00S
FAIRFIELD*     CLEAR     67  60  77 CALM      29.99S
HARRISBURG*    CLEAR     68  64  89 CALM      30.00S
ROBINSON*      CLEAR     65  62  89 N3        30.02S
CARMI*         CLEAR     67  64  90 CALM      30.00S
$$

ABBREVIATIONS USED IN REMARKS
   TC - TEMPERATURE IN CELSIUS
  WCI - WIND CHILL INDEX
   HX - HEAT INDEX
  VSB - VISIBILITY
$$





USA.gov is the U.S. government's official web portal to all federal, state and local government web resources and services.